Retour au catalogue

STARLINK-35739

ActifCommunicationsVLEO
NORAD 67053·PAYLOAD·🇺🇸 United States

Lancé Dec 11, 2025 depuis Cape Canaveral Space Force Station

Loading…

Prochains Passages (prochaines 24 heures)

TLE

FraisSource: CelesTrak SupGP

Époque: Sep 15, 2026, 03:22 UTC

1 67053C 25294Z   26258.14076389 -.00025725  00000+0 -93156-3 0  2581
2 67053  43.0036  48.2901 0001886 268.7256  19.6902 15.27597240    12

Suivez STARLINK-35739 en temps réel avec AllMySat

Download on the App Store